Location: Dębowa Łąka
(53.2556°N, 19.0965°E)
Time: 18:15:54
(UTC+01:00)

ISS - Visible Passes

Search period start: 16 January 2019 00:00
Search period end: 26 January 2019 00:00
Orbit: 404 x 407 km, 51.6° (Epoch: 17 January)

Date Brightness Start Highest point End Pass type
(mag) Time Alt. Az. Time Alt. Az. Time Alt. Az.
23 Jan -1.2 18:37:36 10° SSW 18:38:06 12° S 18:38:06 12° S visible
24 Jan -1.5 17:46:50 10° SSE 17:48:13 12° SE 17:48:29 12° SE visible
24 Jan -0.7 19:20:58 10° SW 19:21:11 11° SW 19:21:11 11° SW visible
25 Jan -2.3 18:29:19 10° SW 18:31:29 26° S 18:31:29 26° S visible
